Погода в Ерофее Павловиче

Россия / Амурская область     53°57′35″N   121°57′16″E
темп.,
°C
ветер,
м/с
пор.,
м/с
влажн.,
%
обл.,
%
осадки,
мм/ч
давл.,
гПа
погр.,
м
24 июля, сб
сб2400:00+16сз119622 0.0 99712
03:00+15сз1197100 0.0 99813
06:00+15з119754 0.0 99832
09:00+20з248267 0.0 998492
12:00+21зсз347052 0.1 999744
15:00+22з336991 0.6 9991102
18:00+21ссз456917 0.6 999811
21:00+15ссв2793100 1.4 1001168
25 июля, вс
вс2500:00+13с2297100 2.8 100256
03:00+13сз1197100 3.4 100231
06:00+13ссз119779 0.4 100221
09:00+18ссз137927 0.5 1002624
12:00+19св238495 1.0 1002356
15:00+20с248262 4.8 1002866
18:00+19ссв368899 3.1 1003602
21:00+14ссз239731 4.7 100565
26 июля, пн
пн2600:00+13ссз239763 1.8 100569
03:00+13ссз229870 2.9 100630
06:00+14с129692 0.4 100665
09:00+17св148892 0.4 1006444
12:00+18всв2489100 1.8 1007558
15:00+20всв358715 5.4 1006778
18:00+19св379117 3.5 1006696
21:00+16ссв229468 6.6 100731
27 июля, вт
вт2700:00+14ссв229751 0.9 100848
03:00+13ссв119678 3.4 100716
06:00+13с11955 0.0 100821
09:00+19всв127526 0.0 1007443
12:00+23вюв336016 0.3 10061155
15:00+22вюв238314 4.1 1005752
18:00+21всв1288100 2.5 1004340
21:00+17св1195100 3.9 100411
28 июля, ср
ср2800:00+15с21985 2.0 100419
03:00+14с22975 2.1 100418
06:00+15ссв11975 0.0 100411
09:00+20юв118421 0.1 1003380
12:00+23з017791 1.4 1001823
15:00+24юз1263100 2.8 10001106
18:00+24ююз1157100 0.0 9991347
21:00+18ссз1189100 0.4 99911